Location: Umburanas
(4.5000°S, 37.9667°W)
Time: 05:11:54
(UTC+00:00)

BREEZE-M TANK - Pass Details

Date: 19 November 2019
Orbit: 509 x 24778 km, 45.6° (Epoch: 12 December)

Event Time Altitude Azimuth Distance (km) Brightness Sun altitude
Rises 22:30:12 0° 222° (SW) 2,675 6.8 -29.2°
Reaches altitude 10° 22:31:41 10° 222° (SW) 1,941 5.9 -29.6°
Enters shadow 22:34:51 74° 222° (SW) 908 3.3 -30.3°
